GPS BIIRM-5 (PRN 29)

Last updated on Sat Apr 13 2024 01:03:04 GMT+0100 (British Summer Time)

1 32384U 07062A 24102.07056510 -.00000050 00000+0 00000+0 0 9992 2 32384 55.6962 306.0280 0026644 147.3156 34.3130 2.00570776119529
UTC large
Height (km)
Speed (km/s)
/
Latitude / Longitude
Inclination (degrees)
Orbital Period (minutes)
Azimuth
Elevation
Range (km)
Doppler Factor

Next 0 passes for location: London (51.5072 / 0.1276)

Sorry there are no passes over London.